526  
ASUS45 KBOU 211707  
RWRCO  
 
WEATHER ROUNDUP FOR COLORADO  
NATIONAL WEATHER SERVICE DENVER/BOULDER CO  
1100 AM MDT THU SEP 21 2017  
 
NOTE: "FAIR" INDICATES FEW OR NO CLOUDS BELOW 12000 FEET WITH NO  
SIGNIFICANT WEATHER AND/OR S TO VISIBILITY
.  
 
COZ001>005-013-030-031-211800-   
..NORTHWEST COLORADO
 
 
 
CITY SKY/WX TMP DP RH WIND PRES REMARKS
 
CRAIG FAIR 73 24 16 SW33G46 29.82F  
HAYDEN FAIR 72 23 16 SW20G29 29.87R  
MEEKER FAIR 71 29 21 S25G38 29.87F  
RABBIT EARS PA FAIR 54 28 37 S8G25 30.12R  
STEAMBOAT SPGS FAIR 70 26 19 S15G21 29.87F  
WALDEN FAIR 63 19 19 SW20G33 29.96S  

 
 
COZ006>008-011-211800-   
..WEST CENTRAL VALLEYS
 
 
 
CITY SKY/WX TMP DP RH WIND PRES REMARKS
 
GRAND JUNCTION FAIR 78 32 18 S21 29.81F  
MONTROSE FAIR 74 27 17 CALM 29.93F  
EAGLE FAIR 72 25 17 SW25G36 29.93S  
RIFLE FAIR 77 28 16 W14 29.85F  
DELTA FAIR 77 29 17 W3 29.90  
NUCLA FAIR 72 21 15 S24G31 29.99S  

 
 
COZ017>023-064>068-211800-   
..SOUTHWEST COLORADO
 
 
 
CITY SKY/WX TMP DP RH WIND PRES REMARKS
 
DURANGO FAIR 64 35 34 E6 30.10F  
CORTEZ FAIR 73 28 18 S14G22 30.00F  
PAGOSA SPRINGS FAIR 62 26 25 S8 30.16F  
TELLURIDE FAIR 61 22 22 SE15G21 30.15S  
WOLF CREEK PAS FAIR 41 18 38 S29G49 30.35R  

 
 
COZ009-010-012-014-032>034-037-058>063-211800-   
..CENTRAL COLORADO
 
 
 
CITY SKY/WX TMP DP RH WIND PRES REMARKS
 
ASPEN FAIR 69 19 15 S21G29 29.98F  
BUENA VISTA FAIR 67 17 14 W5 30.02F  
COPPER MTN FAIR 55 12 18 S16G22 30.25R  
BERTHOUD PASS FAIR 45 36 70 W24G30 30.25R  
COTTONWOOD PAS FAIR 63 18 17 SW28G36 30.12F  
GUNNISON FAIR 61 30 31 NE7 30.06F  
KREMMLING FAIR 75 18 11 SW18 29.96S  
LEADVILLE FAIR 60 12 15 SW16G30 30.10S  
MONARCH PASS FAIR 46 21 36 SW33G41 30.37S  
SALIDA FAIR 69 24 17 S20G31 30.09S  
SUNLIGHT FAIR 50 28 43 SW14G28 30.19S  
WILKERSON PASS FAIR 52 21 30 S8G22 30.24R  

 
 
COZ069>075-211800-   
..SAN LUIS VALLEY/SANGRE DE CRISTO MOUNTAINS
 
 
 
CITY SKY/WX TMP DP RH WIND PRES REMARKS
 
ALAMOSA FAIR 67 29 24 S18G24 30.08F  
DEL NORTE FAIR 64 29 27 SE8 30.11F  
LA VETA PASS FAIR 54 28 37 S37G51 30.27R  
SAGUACHE FAIR 64 32 29 S14G21 30.09F  

 
 
COZ035-036-038>040-211800-   
..NORTHERN COLORADO FRONT RANGE
 
 
 
CITY SKY/WX TMP DP RH WIND PRES REMARKS
 
DENVER INTL AP FAIR 82 23 11 SW15 29.78F  
DMNS CITY PARK N/A 80 27 14 SE9G17 29.77F  
AURORA MOSUNNY 80 23 12 S16G22 29.80F  
FRONT RANGE AP MOSUNNY N/A N/A N/A S20 29.81S  
ERIE MUNI ARPT FAIR 76 32 19 SE6 29.82F  
BOULDER MUN AP FAIR 72 34 25 CALM 29.78F  
CENTENNIAL FAIR 79 21 11 S10G22 29.82F  
BROOMFIELD MOSUNNY 75 32 20 E9 29.81F  
FORT COLLINS FAIR 70 34 26 SW6 29.78F  
LONGMONT FAIR 74 37 26 CALM 29.78F  

 
 
COZ041-046-047-076>085-087-088-211800-   
..PIKES PEAK/PALMER DIVIDE AND SOUTHERN FOOTHILLS
 
 
 
CITY SKY/WX TMP DP RH WIND PRES REMARKS
 
COLO. SPRINGS FAIR 80 25 13 SW23G37 29.88F  
A. F. ACADEMY FAIR 76 25 15 SE12 29.89F  
SCHRIEVER AFB FAIR 76 23 13 S20 29.90F  
CHEYENNE MTN FAIR 75 21 13 SE18G29 29.85F  
ELLICOTT N/A N/A N/A N/A W13G20 29.89F  
FALCON FAIR 75 23 14 S21G31 29.94S  
FORT CARSON SUNNY 80 37 21 S10G18 29.79F  
LIMON FAIR 83 24 11 SW16G25 29.83F  
MONUMENT HILL FAIR 73 25 16 SW16G23 29.95S  
CANON CITY SUNNY 79 30 17 CALM 29.85F  
WALSENBURG NOT AVBL  
TRINIDAD FAIR 81 26 13 SW16G23 29.91S  

 
 
COZ042>045-048>051-090-091-211800-   
..NORTHEAST COLORADO
 
 
 
CITY SKY/WX TMP DP RH WIND PRES REMARKS
 
GREELEY ARPT FAIR 65 40 39 N5 29.78F  
AKRON FAIR 86 24 10 SW23G31 29.76F  
BURLINGTON FAIR 84 35 17 SW23G30 29.80F  
WRAY FAIR 82 36 18 NE3 29.74F  
YUMA FAIR 88 32 13 SW13G21 29.74F  
STERLING FAIR 70 43 37 S5 29.73F  
HOLYOKE NOT AVBL  
FORT MORGAN FAIR 75 32 20 S5 29.77F  

 
 
COZ086-089-092>099-211800-   
..SOUTHEAST COLORADO
 
 
 
CITY SKY/WX TMP DP RH WIND PRES REMARKS
 
PUEBLO FAIR 78 37 22 S5 29.81F  
LA JUNTA FAIR 86 34 15 SW9G17 29.80F  
LAMAR FAIR 83 46 27 NE6 29.77F  
SPRINGFIELD N/A 85 37 18 S16G22 29.86F  

 
 
 
CLICK HERE TO GO TO PREVIOUS BULLETINS.

The Nexlab CO Page Main Text Page